This is the latest recevied weather packets stored in our database for station/object N8QQQ. If no packets are shown the sender has not sent any weather packets the latest 10 day(s).
| Time | Temp. | Humidity | Pressure | Rain* | Wind** | Luminosity | Snow |
|---|---|---|---|---|---|---|---|
| 1777595570 | 1.11° C | 80% | 1015.5 hPa | 0 mm | - | 3 W/m² | - |
| 1777595266 | 1.67° C | 79% | 1015.4 hPa | 0 mm | - | 4 W/m² | - |
| 1777594963 | 1.67° C | 79% | 1015.5 hPa | 0 mm | - | 3 W/m² | - |
| 1777594659 | 1.67° C | 77% | 1015.5 hPa | 0 mm | - | 4 W/m² | - |
| 1777594356 | 1.67° C | 77% | 1015.4 hPa | 0 mm | - | 5 W/m² | - |
| 1777594052 | 2.22° C | 76% | 1015.2 hPa | 0 mm | - | 8 W/m² | - |
| 1777593748 | 2.22° C | 74% | 1015.1 hPa | 0 mm | - | 10 W/m² | - |
| 1777593444 | 2.22° C | 73% | 1015.5 hPa | 0 mm | - | 9 W/m² | - |
| 1777593142 | 2.22° C | 73% | 1015.2 hPa | 0 mm | - | 9 W/m² | - |
| 1777592842 | 2.22° C | 74% | 1015.4 hPa | 0 mm | - | 9 W/m² | - |
| 1777592539 | 2.22° C | 73% | 1015.2 hPa | 0 mm | - | 11 W/m² | - |
| 1777592234 | 2.22° C | 72% | 1015.2 hPa | 0 mm | - | 10 W/m² | - |
| 1777591931 | 2.22° C | 73% | 1015.2 hPa | 0 mm | - | 10 W/m² | - |
| 1777591627 | 2.22° C | 71% | 1015.2 hPa | 0 mm | - | 11 W/m² | - |
| 1777591323 | 2.22° C | 71% | 1015.2 hPa | 0 mm | - | 13 W/m² | - |
| 1777591019 | 2.22° C | 71% | 1015.1 hPa | 0 mm | - | 15 W/m² | - |
| 1777590714 | 2.22° C | 70% | 1015.3 hPa | 0 mm | - | 18 W/m² | - |
| 1777590410 | 2.22° C | 70% | 1015.3 hPa | 0 mm | - | 25 W/m² | - |
| 1777590108 | 2.22° C | 71% | 1015.1 hPa | 0 mm | - | 25 W/m² | - |
| 1777589804 | 2.22° C | 72% | 1015.2 hPa | 0 mm | - | 27 W/m² | - |
| 1777589504 | 2.22° C | 71% | 1015.3 hPa | 0 mm | - | 30 W/m² | - |
| 1777589198 | 2.22° C | 70% | 1015.4 hPa | 0 mm | - | 31 W/m² | - |
| 1777588895 | 2.22° C | 71% | 1015.1 hPa | 0 mm | - | 27 W/m² | - |
| 1777588591 | 2.78° C | 70% | 1015.5 hPa | 0 mm | - | 22 W/m² | - |
| 1777588286 | 2.78° C | 69% | 1015.2 hPa | 0 mm | - | 29 W/m² | - |
* Rain latest hour (hover to see other rain measurements)
** Current wind speed in m/s (hover to see current wind gust speed)